Weather Roundup
Issued by NWS

Home | Current Version | Previous Version | Graphics & Text | Print | Product List | Glossary Off
Versions: 1 2 3 4 5 6 7 8 9 10 11 12 13 14 15 16 17 18 19 20 21 22 23 24 25 26 27 28 29 30 31 32 33 34 35 36 37 38 39 40 41 42 43 44 45 46 47 48 49 50

000
NZUS93 KARX 031459
HRRWXR

CURRENT HOURLY OBSERVATIONS ACROSS
MUCH OF THE UPPER MISSISSIPPI VALLEY
NATIONAL WEATHER SERVICE LA CROSSE WI
1000 AM CDT MON AUG 03 2015


...SOUTHEAST MINNESOTA...


CITY           SKY/WX    TMP DP  RH WIND       PRES   REMARKS
ROCHESTER      SUNNY     69  58  67 NW10      29.94S
ROCHESTER/MAYO FAIR      68  54  61 W8        29.93S
WINONA         SUNNY     70  54  56 W7        29.90S
AUSTIN         SUNNY     70  55  60 W12       29.94S
ALBERT LEA     SUNNY     70  55  60 W8        29.95S
DODGE CENTER   SUNNY     66  55  68 W8        29.94R
PRESTON        SUNNY     69  54  58 W12       29.93S
OWATONNA       SUNNY     70  55  60 NW9       29.94S
FARIBAULT      SUNNY     70  55  60 W7        29.94R
$$

...ELSEWHERE IN MINNESOTA...


CITY           SKY/WX    TMP DP  RH WIND       PRES   REMARKS
MINNEAPOLIS    SUNNY     73  47  39 NW18      29.91R
INTNL FALLS    LGT RAIN  61  53  75 NW13      29.83R
DULUTH         MOSUNNY   67  51  56 NW21G28   29.82S
RED WING       SUNNY     72  55  56 W8        29.89S
REDWOOD FALLS  SUNNY     71  55  56 W7        29.95F
MANKATO        SUNNY     68  54  60 NW8       29.94F
WORTHINGTON    SUNNY     70  54  56 W8        30.00S
FAIRMONT       SUNNY     72  52  49 W7        29.97S
$$

...SOUTHWEST WISCONSIN...


CITY           SKY/WX    TMP DP  RH WIND       PRES   REMARKS
LA CROSSE      SUNNY     73  54  51 NW6       29.88S
PRAIRIE DU CHI SUNNY     72  52  49 W5        29.90S
BOSCOBEL       SUNNY     76  53  44 W6        29.90R
LONE ROCK      NOT AVBL
PLATTEVILLE    SUNNY     72  52  48 NW8       29.91S
FORT MC COY    SUNNY     72  48  42 W8        29.88S
VIROQUA        FAIR      69  54  58 W6        29.90S
WIS DELLS      SUNNY     71  43  36 NW12G17   29.87S
$$

...ELSEWHERE IN WISCONSIN...


CITY           SKY/WX    TMP DP  RH WIND       PRES   REMARKS
MILWAUKEE      SUNNY     75  49  39 W9        29.83S
MADISON        SUNNY     73  50  44 NW12      29.87R
GREEN BAY      SUNNY     70  57  63 W9        29.80S
EAU CLAIRE     SUNNY     71  48  43 NW14      29.86S
BLACK RVR FLS  FAIR      74  46  36 W8        29.86S
MEDFORD        CLOUDY    63  49  59 W8G16     29.85R
WAUSAU         SUNNY     69  47  45 NW16      29.82S
WIS RAPIDS     SUNNY     71  46  40 NW13G23   29.86S
MARSHFIELD     PTSUNNY   69  47  45 NW14      29.85S
RICE LAKE      SUNNY     66  49  54 W16       29.88R
$$

...NORTHEAST IOWA...


CITY           SKY/WX    TMP DP  RH WIND       PRES   REMARKS
DECORAH        SUNNY     68  55  64 VRB5      29.92S
MASON CITY     SUNNY     72  58  61 W8        29.97S
CHARLES CITY   SUNNY     70  59  68 W7        29.95S
OELWEIN          N/A     70  59  68 NW3       29.94S
$$

...ELSEWHERE IN IOWA...


CITY           SKY/WX    TMP DP  RH WIND       PRES   REMARKS
DES MOINES     MOSUNNY   76  52  43 CALM      29.97R
IOWA CITY      SUNNY     75  54  47 VRB6      29.94R
FORT DODGE     SUNNY     72  57  60 CALM      30.00R
$$

...NORTHERN ILLINOIS...


CITY           SKY/WX    TMP DP  RH WIND       PRES   REMARKS
CHICAGO-OHARE  MOSUNNY   75  57  53 N13       29.85R
CHICAGO-MIDWAY MOSUNNY   79  59  50 N9        29.85R
MOLINE         SUNNY     76  53  44 N9        29.90R
ROCKFORD       MOSUNNY   76  51  41 NW10      29.90R
PEORIA         SUNNY     79  64  60 VRB6      29.88R
$$

NOTE: "FAIR" INDICATES FEW OR NO CLOUDS BELOW 12,000 FEET WITH NO
SIGNIFICANT WEATHER AND/OR OBSTRUCTIONS TO VISIBILITY. WIND
SPEEDS ARE IN MILES-PER-HOUR.



USA.gov is the U.S. government's official web portal to all federal, state and local government web resources and services.